#datetime,building,power
2022-01-10T00:00:00,pkn,1.20
2022-01-10T00:02:00,pkn,1.20
2022-01-10T00:04:00,pkn,2.40
2022-01-10T00:06:00,pkn,1.20
2022-01-10T00:07:00,pkn,1.20
2022-01-10T00:09:00,pkn,6.00
2022-01-10T00:11:00,pkn,9.60
2022-01-10T00:13:00,pkn,10.80
2022-01-10T00:15:00,pkn,8.40
2022-01-10T00:17:00,pkn,1.20
2022-01-10T00:18:00,pkn,1.20
2022-01-10T00:20:00,pkn,1.20
2022-01-10T00:22:00,pkn,2.40
2022-01-10T00:25:00,pkn,1.20
2022-01-10T00:27:00,pkn,1.20
2022-01-10T00:29:00,pkn,2.40
2022-01-10T00:32:00,pkn,1.20
2022-01-10T00:33:00,pkn,1.20
2022-01-10T00:35:00,pkn,3.60
2022-01-10T00:37:00,pkn,12.00
2022-01-10T00:38:00,pkn,7.20
2022-01-10T00:40:00,pkn,13.20
2022-01-10T00:42:00,pkn,12.00
2022-01-10T00:43:00,pkn,2.40
2022-01-10T00:45:00,pkn,2.40
2022-01-10T00:47:00,pkn,1.20
2022-01-10T00:48:00,pkn,1.20
2022-01-10T00:50:00,pkn,2.40
2022-01-10T00:52:00,pkn,1.20
2022-01-10T00:55:00,pkn,1.20
2022-01-10T00:57:00,pkn,2.40
2022-01-10T01:00:00,pkn,2.40
2022-01-10T01:02:00,pkn,1.20
2022-01-10T01:04:00,pkn,2.40
2022-01-10T01:06:00,pkn,1.20
2022-01-10T01:08:00,pkn,1.20
2022-01-10T01:09:00,pkn,2.40
2022-01-10T01:11:00,pkn,9.60
2022-01-10T01:13:00,pkn,10.80
2022-01-10T01:14:00,pkn,3.60
2022-01-10T01:16:00,pkn,4.80
2022-01-10T01:17:00,pkn,1.20
2022-01-10T01:18:00,pkn,1.20
2022-01-10T01:21:00,pkn,1.20
2022-01-10T01:23:00,pkn,1.20
2022-01-10T01:25:00,pkn,1.20
2022-01-10T01:27:00,pkn,1.20
2022-01-10T01:28:00,pkn,1.20
2022-01-10T01:31:00,pkn,2.40
2022-01-10T01:33:00,pkn,1.20
2022-01-10T01:35:00,pkn,1.20
2022-01-10T01:37:00,pkn,1.20
2022-01-10T01:40:00,pkn,1.20
2022-01-10T01:41:00,pkn,1.20
2022-01-10T01:43:00,pkn,1.20
2022-01-10T01:45:00,pkn,1.20
2022-01-10T01:47:00,pkn,9.60
2022-01-10T01:49:00,pkn,8.40
2022-01-10T01:50:00,pkn,6.00
2022-01-10T01:51:00,pkn,3.60
2022-01-10T01:53:00,pkn,2.40
2022-01-10T01:55:00,pkn,1.20
2022-01-10T01:56:00,pkn,1.20
2022-01-10T01:58:00,pkn,1.20
2022-01-10T02:00:00,pkn,1.20
2022-01-10T02:01:00,pkn,1.20
2022-01-10T02:03:00,pkn,1.20
2022-01-10T02:05:00,pkn,1.20
2022-01-10T02:07:00,pkn,1.20
2022-01-10T02:09:00,pkn,2.40
2022-01-10T02:11:00,pkn,1.20
2022-01-10T02:13:00,pkn,1.20
2022-01-10T02:15:00,pkn,1.20
2022-01-10T02:18:00,pkn,1.20
2022-01-10T02:20:00,pkn,2.40
2022-01-10T02:22:00,pkn,1.20
2022-01-10T02:25:00,pkn,2.40
2022-01-10T02:27:00,pkn,1.20
2022-01-10T02:29:00,pkn,3.60
2022-01-10T02:31:00,pkn,8.40
2022-01-10T02:33:00,pkn,10.80
2022-01-10T02:34:00,pkn,4.80
2022-01-10T02:36:00,pkn,2.40
2022-01-10T02:38:00,pkn,1.20
2022-01-10T02:40:00,pkn,1.20
2022-01-10T02:42:00,pkn,1.20
2022-01-10T02:43:00,pkn,1.20
2022-01-10T02:45:00,pkn,1.20
2022-01-10T02:48:00,pkn,1.20
2022-01-10T02:50:00,pkn,1.20
2022-01-10T02:52:00,pkn,1.20
2022-01-10T02:53:00,pkn,1.20
2022-01-10T02:56:00,pkn,1.20
2022-01-10T02:58:00,pkn,1.20
2022-01-10T03:00:00,pkn,1.20
2022-01-10T03:02:00,pkn,2.40
2022-01-10T03:05:00,pkn,1.20
2022-01-10T03:06:00,pkn,1.20
2022-01-10T03:08:00,pkn,1.20
2022-01-10T03:10:00,pkn,1.20
2022-01-10T03:13:00,pkn,1.20
2022-01-10T03:14:00,pkn,1.20
2022-01-10T03:16:00,pkn,1.20
2022-01-10T03:18:00,pkn,1.20
2022-01-10T03:20:00,pkn,8.40
2022-01-10T03:21:00,pkn,3.60
2022-01-10T03:23:00,pkn,9.60
2022-01-10T03:25:00,pkn,7.20
2022-01-10T03:29:00,pkn,2.40
2022-01-10T03:31:00,pkn,1.20
2022-01-10T03:33:00,pkn,1.20
2022-01-10T03:35:00,pkn,1.20
2022-01-10T03:38:00,pkn,1.20
2022-01-10T03:39:00,pkn,1.20
2022-01-10T03:41:00,pkn,1.20
2022-01-10T03:43:00,pkn,1.20
2022-01-10T03:46:00,pkn,1.20
2022-01-10T03:48:00,pkn,2.40
2022-01-10T03:51:00,pkn,1.20
2022-01-10T03:53:00,pkn,2.40
2022-01-10T03:55:00,pkn,1.20
2022-01-10T03:56:00,pkn,1.20
2022-01-10T03:58:00,pkn,1.20
2022-01-10T04:01:00,pkn,1.20
2022-01-10T04:03:00,pkn,2.40
2022-01-10T04:06:00,pkn,1.20
2022-01-10T04:07:00,pkn,1.20
2022-01-10T04:09:00,pkn,1.20
2022-01-10T04:11:00,pkn,1.20
2022-01-10T04:13:00,pkn,1.20
2022-01-10T04:16:00,pkn,1.20
2022-01-10T04:18:00,pkn,6.00
2022-01-10T04:19:00,pkn,4.80
2022-01-10T04:21:00,pkn,9.60
2022-01-10T04:22:00,pkn,4.80
2022-01-10T04:24:00,pkn,4.80
2022-01-10T04:26:00,pkn,1.20
2022-01-10T04:28:00,pkn,1.20
2022-01-10T04:30:00,pkn,1.20
2022-01-10T04:32:00,pkn,1.20
2022-01-10T04:34:00,pkn,1.20
2022-01-10T04:37:00,pkn,1.20
2022-01-10T04:38:00,pkn,1.20
2022-01-10T04:40:00,pkn,1.20
2022-01-10T04:42:00,pkn,1.20
2022-01-10T04:44:00,pkn,1.20
2022-01-10T04:48:00,pkn,1.20
2022-01-10T04:50:00,pkn,2.40
2022-01-10T04:52:00,pkn,1.20
2022-01-10T04:54:00,pkn,1.20
2022-01-10T04:57:00,pkn,1.20
2022-01-10T04:58:00,pkn,1.20
2022-01-10T05:01:00,pkn,1.20
2022-01-10T05:04:00,pkn,1.20
2022-01-10T05:05:00,pkn,1.20
2022-01-10T05:07:00,pkn,1.20
2022-01-10T05:09:00,pkn,1.20
2022-01-10T05:11:00,pkn,1.20
2022-01-10T05:14:00,pkn,1.20
2022-01-10T05:15:00,pkn,1.20
2022-01-10T05:17:00,pkn,1.20
2022-01-10T05:19:00,pkn,1.20
2022-01-10T05:21:00,pkn,1.20
2022-01-10T05:22:00,pkn,1.20
2022-01-10T05:24:00,pkn,1.20
2022-01-10T05:25:00,pkn,1.20
2022-01-10T05:27:00,pkn,1.20
2022-01-10T05:29:00,pkn,7.20
2022-01-10T05:31:00,pkn,9.60
2022-01-10T05:33:00,pkn,9.60
2022-01-10T05:35:00,pkn,4.80
2022-01-10T05:37:00,pkn,1.20
2022-01-10T05:38:00,pkn,1.20
2022-01-10T05:40:00,pkn,1.20
2022-01-10T05:42:00,pkn,1.20
2022-01-10T05:44:00,pkn,1.20
2022-01-10T05:46:00,pkn,1.20
2022-01-10T05:48:00,pkn,1.20
2022-01-10T05:50:00,pkn,1.20
2022-01-10T05:53:00,pkn,1.20
2022-01-10T05:54:00,pkn,1.20
2022-01-10T05:56:00,pkn,1.20
2022-01-10T05:58:00,pkn,1.20
2022-01-10T06:00:00,pkn,1.20
2022-01-10T06:02:00,pkn,1.20
2022-01-10T06:05:00,pkn,1.20
2022-01-10T06:06:00,pkn,1.20
2022-01-10T06:08:00,pkn,1.20
2022-01-10T06:10:00,pkn,1.20
2022-01-10T06:12:00,pkn,1.20
2022-01-10T06:14:00,pkn,1.20
2022-01-10T06:15:00,pkn,1.20
2022-01-10T06:18:00,pkn,1.20
2022-01-10T06:20:00,pkn,1.20
2022-01-10T06:22:00,pkn,1.20
2022-01-10T06:24:00,pkn,1.20
2022-01-10T06:26:00,pkn,1.20
2022-01-10T06:28:00,pkn,1.20
2022-01-10T06:30:00,pkn,1.20
2022-01-10T06:32:00,pkn,1.20
2022-01-10T06:35:00,pkn,1.20
2022-01-10T06:37:00,pkn,1.20
2022-01-10T06:40:00,pkn,1.20
2022-01-10T06:42:00,pkn,2.40
2022-01-10T06:45:00,pkn,1.20
2022-01-10T06:48:00,pkn,2.40
2022-01-10T06:51:00,pkn,1.20
2022-01-10T06:52:00,pkn,1.20
2022-01-10T06:53:00,pkn,2.40
2022-01-10T06:55:00,pkn,3.60
2022-01-10T06:56:00,pkn,7.20
2022-01-10T06:57:00,pkn,6.00
2022-01-10T06:59:00,pkn,10.80
2022-01-10T07:00:00,pkn,4.80
2022-01-10T07:02:00,pkn,4.80
2022-01-10T07:05:00,pkn,2.40
2022-01-10T07:07:00,pkn,1.20
2022-01-10T07:09:00,pkn,1.20
2022-01-10T07:11:00,pkn,1.20
2022-01-10T07:13:00,pkn,2.40
2022-01-10T07:15:00,pkn,1.20
2022-01-10T07:17:00,pkn,2.40
2022-01-10T07:20:00,pkn,2.40
2022-01-10T07:21:00,pkn,1.20
2022-01-10T07:23:00,pkn,1.20
2022-01-10T07:25:00,pkn,1.20
2022-01-10T07:26:00,pkn,1.20
2022-01-10T07:28:00,pkn,1.20
2022-01-10T07:29:00,pkn,1.20
2022-01-10T07:31:00,pkn,1.20
2022-01-10T07:33:00,pkn,2.40
2022-01-10T07:35:00,pkn,1.20
2022-01-10T07:37:00,pkn,1.20
2022-01-10T07:38:00,pkn,1.20
2022-01-10T07:40:00,pkn,2.40
2022-01-10T07:42:00,pkn,1.20
2022-01-10T07:43:00,pkn,1.20
2022-01-10T07:44:00,pkn,1.20
2022-01-10T07:46:00,pkn,1.20
2022-01-10T07:47:00,pkn,1.20
2022-01-10T07:49:00,pkn,1.20
2022-01-10T07:51:00,pkn,1.20
2022-01-10T07:53:00,pkn,1.20
2022-01-10T07:54:00,pkn,1.20
2022-01-10T07:56:00,pkn,1.20
2022-01-10T07:57:00,pkn,1.20
2022-01-10T07:59:00,pkn,1.20
2022-01-10T08:02:00,pkn,2.40
2022-01-10T08:05:00,pkn,1.20
2022-01-10T08:07:00,pkn,2.40
2022-01-10T08:09:00,pkn,1.20
2022-01-10T08:11:00,pkn,1.20
2022-01-10T08:13:00,pkn,2.40
2022-01-10T08:15:00,pkn,1.20
2022-01-10T08:17:00,pkn,1.20
2022-01-10T08:19:00,pkn,9.60
2022-01-10T08:21:00,pkn,9.60
2022-01-10T08:23:00,pkn,8.40
2022-01-10T08:25:00,pkn,2.40
2022-01-10T08:27:00,pkn,1.20
2022-01-10T08:29:00,pkn,1.20
2022-01-10T08:31:00,pkn,1.20
2022-01-10T08:32:00,pkn,1.20
2022-01-10T08:34:00,pkn,1.20
2022-01-10T08:36:00,pkn,1.20
2022-01-10T08:38:00,pkn,3.60
2022-01-10T08:40:00,pkn,1.20
2022-01-10T08:41:00,pkn,1.20
2022-01-10T08:43:00,pkn,1.20
2022-01-10T08:45:00,pkn,1.20
2022-01-10T08:47:00,pkn,1.20
2022-01-10T08:48:00,pkn,1.20
2022-01-10T08:50:00,pkn,1.20
2022-01-10T08:52:00,pkn,1.20
2022-01-10T08:53:00,pkn,1.20
2022-01-10T08:57:00,pkn,2.40
2022-01-10T09:00:00,pkn,1.20
2022-01-10T09:01:00,pkn,1.20
2022-01-10T09:03:00,pkn,1.20
2022-01-10T09:05:00,pkn,1.20
2022-01-10T09:07:00,pkn,1.20
2022-01-10T09:08:00,pkn,1.20
2022-01-10T09:10:00,pkn,1.20
2022-01-10T09:11:00,pkn,1.20
2022-01-10T09:13:00,pkn,1.20
2022-01-10T09:14:00,pkn,1.20
2022-01-10T09:16:00,pkn,1.20
2022-01-10T09:17:00,pkn,1.20
2022-01-10T09:19:00,pkn,1.20
2022-01-10T09:22:00,pkn,1.20
2022-01-10T09:23:00,pkn,1.20
2022-01-10T09:26:00,pkn,1.20
2022-01-10T09:28:00,pkn,1.20
2022-01-10T09:30:00,pkn,2.40
2022-01-10T09:33:00,pkn,4.80
2022-01-10T09:34:00,pkn,4.80
2022-01-10T09:36:00,pkn,9.60
2022-01-10T09:37:00,pkn,4.80
2022-01-10T09:39:00,pkn,8.40
2022-01-10T09:42:00,pkn,1.20
2022-01-10T09:43:00,pkn,1.20
2022-01-10T09:45:00,pkn,1.20
2022-01-10T09:47:00,pkn,1.20
2022-01-10T09:48:00,pkn,3.60
2022-01-10T09:50:00,pkn,9.60
2022-01-10T09:52:00,pkn,9.60
2022-01-10T09:53:00,pkn,6.00
2022-01-10T09:55:00,pkn,9.60
2022-01-10T09:56:00,pkn,2.40
2022-01-10T09:57:00,pkn,1.20
2022-01-10T09:59:00,pkn,1.20
2022-01-10T10:01:00,pkn,1.20
2022-01-10T10:03:00,pkn,2.40
2022-01-10T10:05:00,pkn,1.20
2022-01-10T10:06:00,pkn,1.20
2022-01-10T10:08:00,pkn,1.20
2022-01-10T10:11:00,pkn,1.20
2022-01-10T10:13:00,pkn,7.20
2022-01-10T10:15:00,pkn,9.60
2022-01-10T10:17:00,pkn,8.40
2022-01-10T10:19:00,pkn,10.80
2022-01-10T10:21:00,pkn,9.60
2022-01-10T10:23:00,pkn,9.60
2022-01-10T10:25:00,pkn,1.20
2022-01-10T10:27:00,pkn,1.20
2022-01-10T10:28:00,pkn,1.20
2022-01-10T10:30:00,pkn,1.20
2022-01-10T10:31:00,pkn,1.20
2022-01-10T10:33:00,pkn,1.20
2022-01-10T10:34:00,pkn,1.20
2022-01-10T10:36:00,pkn,1.20
2022-01-10T10:39:00,pkn,1.20
2022-01-10T10:40:00,pkn,3.60
2022-01-10T10:42:00,pkn,9.60
2022-01-10T10:44:00,pkn,9.60
2022-01-10T10:46:00,pkn,9.60
2022-01-10T10:47:00,pkn,2.40
2022-01-10T10:49:00,pkn,2.40
2022-01-10T10:51:00,pkn,1.20
2022-01-10T10:53:00,pkn,1.20
2022-01-10T10:54:00,pkn,1.20
2022-01-10T10:56:00,pkn,1.20
2022-01-10T10:58:00,pkn,2.40
2022-01-10T11:00:00,pkn,1.20
2022-01-10T11:02:00,pkn,1.20
2022-01-10T11:03:00,pkn,1.20
2022-01-10T11:05:00,pkn,1.20
2022-01-10T11:07:00,pkn,1.20
2022-01-10T11:09:00,pkn,3.60
2022-01-10T11:10:00,pkn,4.80
2022-01-10T11:11:00,pkn,4.80
2022-01-10T11:13:00,pkn,8.40
2022-01-10T11:14:00,pkn,6.00
2022-01-10T11:16:00,pkn,4.80
2022-01-10T11:18:00,pkn,1.20
2022-01-10T11:20:00,pkn,1.20
2022-01-10T11:22:00,pkn,1.20
2022-01-10T11:24:00,pkn,2.40
2022-01-10T11:26:00,pkn,1.20
2022-01-10T11:29:00,pkn,1.20
2022-01-10T11:30:00,pkn,1.20
2022-01-10T11:32:00,pkn,1.20
2022-01-10T11:33:00,pkn,1.20
2022-01-10T11:35:00,pkn,1.20
2022-01-10T11:37:00,pkn,1.20
2022-01-10T11:38:00,pkn,1.20
2022-01-10T11:40:00,pkn,1.20
2022-01-10T11:42:00,pkn,1.20
2022-01-10T11:44:00,pkn,2.40
2022-01-10T11:45:00,pkn,6.00
2022-01-10T11:47:00,pkn,8.40
2022-01-10T11:49:00,pkn,9.60
2022-01-10T11:51:00,pkn,4.80
2022-01-10T11:53:00,pkn,1.20
2022-01-10T11:55:00,pkn,1.20
2022-01-10T11:57:00,pkn,1.20
2022-01-10T11:58:00,pkn,1.20
2022-01-10T12:00:00,pkn,1.20
2022-01-10T12:02:00,pkn,1.20
2022-01-10T12:03:00,pkn,1.20
2022-01-10T12:05:00,pkn,1.20
2022-01-10T12:08:00,pkn,1.20
2022-01-10T12:10:00,pkn,2.40
2022-01-10T12:11:00,pkn,1.20
2022-01-10T12:14:00,pkn,1.20
2022-01-10T12:16:00,pkn,2.40
2022-01-10T12:18:00,pkn,1.20
2022-01-10T12:19:00,pkn,1.20
2022-01-10T12:21:00,pkn,1.20
2022-01-10T12:22:00,pkn,2.40
2022-01-10T12:24:00,pkn,9.60
2022-01-10T12:25:00,pkn,3.60
2022-01-10T12:27:00,pkn,10.80
2022-01-10T12:29:00,pkn,2.40
2022-01-10T12:31:00,pkn,1.20
2022-01-10T12:32:00,pkn,1.20
2022-01-10T12:34:00,pkn,1.20
2022-01-10T12:36:00,pkn,1.20
2022-01-10T12:37:00,pkn,1.20
2022-01-10T12:39:00,pkn,1.20
2022-01-10T12:42:00,pkn,1.20
2022-01-10T12:43:00,pkn,1.20
2022-01-10T12:45:00,pkn,1.20
2022-01-10T12:47:00,pkn,1.20
2022-01-10T12:48:00,pkn,1.20
2022-01-10T12:51:00,pkn,1.20
2022-01-10T12:53:00,pkn,1.20
2022-01-10T12:55:00,pkn,1.20
2022-01-10T12:56:00,pkn,1.20
2022-01-10T12:58:00,pkn,1.20
2022-01-10T12:59:00,pkn,1.20
2022-01-10T13:01:00,pkn,1.20
2022-01-10T13:03:00,pkn,2.40
2022-01-10T13:05:00,pkn,8.40
2022-01-10T13:06:00,pkn,3.60
2022-01-10T13:07:00,pkn,7.20
2022-01-10T13:08:00,pkn,3.60
2022-01-10T13:10:00,pkn,8.40
2022-01-10T13:12:00,pkn,1.20
2022-01-10T13:13:00,pkn,1.20
2022-01-10T13:15:00,pkn,1.20
2022-01-10T13:17:00,pkn,1.20
2022-01-10T13:19:00,pkn,2.40
2022-01-10T13:22:00,pkn,2.40
2022-01-10T13:24:00,pkn,1.20
2022-01-10T13:26:00,pkn,1.20
2022-01-10T13:28:00,pkn,2.40
2022-01-10T13:30:00,pkn,1.20
2022-01-10T13:32:00,pkn,1.20
2022-01-10T13:34:00,pkn,1.20
2022-01-10T13:35:00,pkn,1.20
2022-01-10T13:37:00,pkn,1.20
2022-01-10T13:39:00,pkn,1.20
2022-01-10T13:41:00,pkn,1.20
2022-01-10T13:42:00,pkn,1.20
2022-01-10T13:44:00,pkn,1.20
2022-01-10T13:46:00,pkn,2.40
2022-01-10T13:49:00,pkn,7.20
2022-01-10T13:51:00,pkn,9.60
2022-01-10T13:53:00,pkn,9.60
2022-01-10T13:55:00,pkn,6.00
2022-01-10T13:56:00,pkn,2.40
2022-01-10T13:57:00,pkn,2.40
2022-01-10T13:59:00,pkn,3.60
2022-01-10T14:01:00,pkn,4.80
2022-01-10T14:03:00,pkn,2.40
2022-01-10T14:05:00,pkn,1.20
2022-01-10T14:07:00,pkn,1.20
2022-01-10T14:09:00,pkn,2.40
2022-01-10T14:12:00,pkn,1.20
2022-01-10T14:14:00,pkn,2.40
2022-01-10T14:16:00,pkn,1.20
2022-01-10T14:18:00,pkn,1.20
2022-01-10T14:19:00,pkn,1.20
2022-01-10T14:21:00,pkn,1.20
2022-01-10T14:23:00,pkn,2.40
2022-01-10T14:26:00,pkn,4.80
2022-01-10T14:27:00,pkn,4.80
2022-01-10T14:29:00,pkn,9.60
2022-01-10T14:30:00,pkn,3.60
2022-01-10T14:31:00,pkn,4.80
2022-01-10T14:33:00,pkn,4.80
2022-01-10T14:35:00,pkn,2.40
2022-01-10T14:37:00,pkn,4.80
2022-01-10T14:39:00,pkn,4.80
2022-01-10T14:41:00,pkn,4.80
2022-01-10T14:43:00,pkn,1.20
2022-01-10T14:45:00,pkn,6.00
2022-01-10T14:46:00,pkn,4.80
2022-01-10T14:47:00,pkn,4.80
2022-01-10T14:48:00,pkn,4.80
2022-01-10T14:50:00,pkn,9.60
2022-01-10T14:52:00,pkn,12.00
2022-01-10T14:53:00,pkn,6.00
2022-01-10T14:55:00,pkn,10.80
2022-01-10T14:57:00,pkn,10.80
2022-01-10T14:59:00,pkn,9.60
2022-01-10T15:01:00,pkn,9.60
2022-01-10T15:03:00,pkn,6.00
2022-01-10T15:05:00,pkn,2.40
2022-01-10T15:07:00,pkn,2.40
2022-01-10T15:10:00,pkn,2.40
2022-01-10T15:11:00,pkn,1.20
2022-01-10T15:13:00,pkn,1.20
2022-01-10T15:15:00,pkn,8.40
2022-01-10T15:17:00,pkn,9.60
2022-01-10T15:18:00,pkn,4.80
2022-01-10T15:20:00,pkn,9.60
2022-01-10T15:22:00,pkn,10.80
2022-01-10T15:23:00,pkn,3.60
2022-01-10T15:25:00,pkn,7.20
2022-01-10T15:26:00,pkn,1.20
2022-01-10T15:27:00,pkn,1.20
2022-01-10T15:29:00,pkn,1.20
2022-01-10T15:31:00,pkn,2.40
2022-01-10T15:33:00,pkn,1.20
2022-01-10T15:34:00,pkn,1.20
2022-01-10T15:36:00,pkn,2.40
2022-01-10T15:38:00,pkn,1.20
2022-01-10T15:40:00,pkn,2.40
2022-01-10T15:42:00,pkn,2.40
2022-01-10T15:44:00,pkn,4.80
2022-01-10T15:46:00,pkn,10.80
2022-01-10T15:48:00,pkn,9.60
2022-01-10T15:50:00,pkn,9.60
2022-01-10T15:52:00,pkn,3.60
2022-01-10T15:53:00,pkn,1.20
2022-01-10T15:55:00,pkn,1.20
2022-01-10T15:56:00,pkn,1.20
2022-01-10T15:58:00,pkn,2.40
2022-01-10T16:00:00,pkn,2.40
2022-01-10T16:02:00,pkn,1.20
2022-01-10T16:03:00,pkn,1.20
2022-01-10T16:05:00,pkn,2.40
2022-01-10T16:07:00,pkn,1.20
2022-01-10T16:09:00,pkn,2.40
2022-01-10T16:10:00,pkn,1.20
2022-01-10T16:12:00,pkn,2.40
2022-01-10T16:14:00,pkn,1.20
2022-01-10T16:15:00,pkn,1.20
2022-01-10T16:17:00,pkn,10.80
2022-01-10T16:19:00,pkn,9.60
2022-01-10T16:20:00,pkn,6.00
2022-01-10T16:22:00,pkn,10.80
2022-01-10T16:24:00,pkn,2.40
2022-01-10T16:25:00,pkn,1.20
2022-01-10T16:26:00,pkn,1.20
2022-01-10T16:28:00,pkn,1.20
2022-01-10T16:30:00,pkn,2.40
2022-01-10T16:31:00,pkn,1.20
2022-01-10T16:33:00,pkn,1.20
2022-01-10T16:35:00,pkn,2.40
2022-01-10T16:36:00,pkn,1.20
2022-01-10T16:38:00,pkn,2.40
2022-01-10T16:40:00,pkn,2.40
2022-01-10T16:42:00,pkn,2.40
2022-01-10T16:43:00,pkn,1.20
2022-01-10T16:45:00,pkn,2.40
2022-01-10T16:47:00,pkn,1.20
2022-01-10T16:49:00,pkn,3.60
2022-01-10T16:51:00,pkn,1.20
2022-01-10T16:53:00,pkn,2.40
2022-01-10T16:55:00,pkn,2.40
2022-01-10T16:56:00,pkn,4.80
2022-01-10T16:58:00,pkn,9.60
2022-01-10T17:00:00,pkn,10.80
2022-01-10T17:01:00,pkn,3.60
2022-01-10T17:02:00,pkn,1.20
2022-01-10T17:04:00,pkn,1.20
2022-01-10T17:06:00,pkn,2.40
2022-01-10T17:07:00,pkn,1.20
2022-01-10T17:09:00,pkn,2.40
2022-01-10T17:11:00,pkn,1.20
2022-01-10T17:13:00,pkn,2.40
2022-01-10T17:15:00,pkn,2.40
2022-01-10T17:17:00,pkn,2.40
2022-01-10T17:18:00,pkn,1.20
2022-01-10T17:20:00,pkn,2.40
2022-01-10T17:22:00,pkn,2.40
2022-01-10T17:24:00,pkn,2.40
2022-01-10T17:26:00,pkn,1.20
2022-01-10T17:28:00,pkn,2.40
2022-01-10T17:30:00,pkn,2.40
2022-01-10T17:32:00,pkn,2.40
2022-01-10T17:34:00,pkn,7.20
2022-01-10T17:36:00,pkn,10.80
2022-01-10T17:37:00,pkn,6.00
2022-01-10T17:39:00,pkn,10.80
2022-01-10T17:40:00,pkn,2.40
2022-01-10T17:42:00,pkn,2.40
2022-01-10T17:44:00,pkn,2.40
2022-01-10T17:45:00,pkn,1.20
2022-01-10T17:47:00,pkn,2.40
2022-01-10T17:49:00,pkn,1.20
2022-01-10T17:50:00,pkn,1.20
2022-01-10T17:52:00,pkn,2.40
2022-01-10T17:53:00,pkn,1.20
2022-01-10T17:55:00,pkn,2.40
2022-01-10T17:56:00,pkn,1.20
2022-01-10T17:58:00,pkn,1.20
2022-01-10T17:59:00,pkn,1.20
2022-01-10T18:00:00,pkn,1.20
2022-01-10T18:02:00,pkn,2.40
2022-01-10T18:03:00,pkn,1.20
2022-01-10T18:05:00,pkn,1.20
2022-01-10T18:06:00,pkn,1.20
2022-01-10T18:07:00,pkn,1.20
2022-01-10T18:08:00,pkn,1.20
2022-01-10T18:10:00,pkn,2.40
2022-01-10T18:11:00,pkn,1.20
2022-01-10T18:13:00,pkn,2.40
2022-01-10T18:15:00,pkn,1.20
2022-01-10T18:17:00,pkn,2.40
2022-01-10T18:19:00,pkn,8.40
2022-01-10T18:21:00,pkn,9.60
2022-01-10T18:22:00,pkn,6.00
2022-01-10T18:24:00,pkn,10.80
2022-01-10T18:26:00,pkn,9.60
2022-01-10T18:28:00,pkn,3.60
2022-01-10T18:29:00,pkn,1.20
2022-01-10T18:31:00,pkn,2.40
2022-01-10T18:32:00,pkn,1.20
2022-01-10T18:35:00,pkn,2.40
2022-01-10T18:37:00,pkn,3.60
2022-01-10T18:38:00,pkn,1.20
2022-01-10T18:40:00,pkn,2.40
2022-01-10T18:41:00,pkn,2.40
2022-01-10T18:43:00,pkn,2.40
2022-01-10T18:45:00,pkn,3.60
2022-01-10T18:47:00,pkn,2.40
2022-01-10T18:48:00,pkn,1.20
2022-01-10T18:50:00,pkn,3.60
2022-01-10T18:52:00,pkn,2.40
2022-01-10T18:54:00,pkn,1.20
2022-01-10T18:55:00,pkn,1.20
2022-01-10T18:57:00,pkn,2.40
2022-01-10T18:59:00,pkn,2.40
2022-01-10T19:01:00,pkn,2.40
2022-01-10T19:03:00,pkn,2.40
2022-01-10T19:04:00,pkn,1.20
2022-01-10T19:06:00,pkn,1.20
2022-01-10T19:07:00,pkn,1.20
2022-01-10T19:08:00,pkn,1.20
2022-01-10T19:10:00,pkn,2.40
2022-01-10T19:12:00,pkn,2.40
2022-01-10T19:15:00,pkn,2.40
2022-01-10T19:17:00,pkn,8.40
2022-01-10T19:19:00,pkn,9.60
2022-01-10T19:21:00,pkn,10.80
2022-01-10T19:23:00,pkn,3.60
2022-01-10T19:25:00,pkn,1.20
2022-01-10T19:26:00,pkn,1.20
2022-01-10T19:27:00,pkn,1.20
2022-01-10T19:29:00,pkn,2.40
2022-01-10T19:31:00,pkn,2.40
2022-01-10T19:33:00,pkn,2.40
2022-01-10T19:35:00,pkn,2.40
2022-01-10T19:37:00,pkn,2.40
2022-01-10T19:38:00,pkn,1.20
2022-01-10T19:40:00,pkn,2.40
2022-01-10T19:42:00,pkn,2.40
2022-01-10T19:45:00,pkn,2.40
2022-01-10T19:47:00,pkn,2.40
2022-01-10T19:48:00,pkn,1.20
2022-01-10T19:50:00,pkn,1.20
2022-01-10T19:52:00,pkn,2.40
2022-01-10T19:54:00,pkn,2.40
2022-01-10T19:56:00,pkn,1.20
2022-01-10T19:58:00,pkn,2.40
2022-01-10T20:00:00,pkn,2.40
2022-01-10T20:02:00,pkn,2.40
2022-01-10T20:03:00,pkn,1.20
2022-01-10T20:05:00,pkn,2.40
2022-01-10T20:07:00,pkn,2.40
2022-01-10T20:08:00,pkn,1.20
2022-01-10T20:10:00,pkn,3.60
2022-01-10T20:11:00,pkn,6.00
2022-01-10T20:13:00,pkn,10.80
2022-01-10T20:15:00,pkn,8.40
2022-01-10T20:17:00,pkn,2.40
2022-01-10T20:19:00,pkn,1.20
2022-01-10T20:21:00,pkn,1.20
2022-01-10T20:22:00,pkn,1.20
2022-01-10T20:24:00,pkn,2.40
2022-01-10T20:26:00,pkn,1.20
2022-01-10T20:27:00,pkn,1.20
2022-01-10T20:28:00,pkn,1.20
2022-01-10T20:30:00,pkn,1.20
2022-01-10T20:32:00,pkn,2.40
2022-01-10T20:33:00,pkn,1.20
2022-01-10T20:35:00,pkn,1.20
2022-01-10T20:37:00,pkn,2.40
2022-01-10T20:38:00,pkn,1.20
2022-01-10T20:40:00,pkn,1.20
2022-01-10T20:41:00,pkn,1.20
2022-01-10T20:43:00,pkn,2.40
2022-01-10T20:45:00,pkn,1.20
2022-01-10T20:47:00,pkn,2.40
2022-01-10T20:49:00,pkn,1.20
2022-01-10T20:51:00,pkn,2.40
2022-01-10T20:52:00,pkn,1.20
2022-01-10T20:54:00,pkn,1.20
2022-01-10T20:56:00,pkn,2.40
2022-01-10T20:59:00,pkn,2.40
2022-01-10T21:00:00,pkn,1.20
2022-01-10T21:02:00,pkn,2.40
2022-01-10T21:05:00,pkn,2.40
2022-01-10T21:06:00,pkn,1.20
2022-01-10T21:08:00,pkn,9.60
2022-01-10T21:10:00,pkn,8.40
2022-01-10T21:11:00,pkn,6.00
2022-01-10T21:13:00,pkn,8.40
2022-01-10T21:14:00,pkn,1.20
2022-01-10T21:16:00,pkn,2.40
2022-01-10T21:18:00,pkn,1.20
2022-01-10T21:20:00,pkn,2.40
2022-01-10T21:21:00,pkn,1.20
2022-01-10T21:23:00,pkn,1.20
2022-01-10T21:24:00,pkn,1.20
2022-01-10T21:26:00,pkn,1.20
2022-01-10T21:27:00,pkn,1.20
2022-01-10T21:29:00,pkn,2.40
2022-01-10T21:31:00,pkn,1.20
2022-01-10T21:33:00,pkn,2.40
2022-01-10T21:35:00,pkn,2.40
2022-01-10T21:38:00,pkn,2.40
2022-01-10T21:40:00,pkn,2.40
2022-01-10T21:42:00,pkn,1.20
2022-01-10T21:44:00,pkn,2.40
2022-01-10T21:46:00,pkn,1.20
2022-01-10T21:48:00,pkn,2.40
2022-01-10T21:49:00,pkn,1.20
2022-01-10T21:51:00,pkn,1.20
2022-01-10T21:53:00,pkn,2.40
2022-01-10T21:55:00,pkn,3.60
2022-01-10T21:56:00,pkn,2.40
2022-01-10T21:58:00,pkn,3.60
2022-01-10T21:59:00,pkn,2.40
2022-01-10T22:01:00,pkn,2.40
2022-01-10T22:02:00,pkn,1.20
2022-01-10T22:03:00,pkn,1.20
2022-01-10T22:05:00,pkn,2.40
2022-01-10T22:06:00,pkn,1.20
2022-01-10T22:08:00,pkn,1.20
2022-01-10T22:10:00,pkn,7.20
2022-01-10T22:11:00,pkn,4.80
2022-01-10T22:13:00,pkn,10.80
2022-01-10T22:14:00,pkn,1.20
2022-01-10T22:15:00,pkn,8.40
2022-01-10T22:16:00,pkn,4.80
2022-01-10T22:18:00,pkn,10.80
2022-01-10T22:20:00,pkn,2.40
2022-01-10T22:21:00,pkn,1.20
2022-01-10T22:23:00,pkn,1.20
2022-01-10T22:25:00,pkn,3.60
2022-01-10T22:27:00,pkn,9.60
2022-01-10T22:29:00,pkn,10.80
2022-01-10T22:31:00,pkn,9.60
2022-01-10T22:32:00,pkn,4.80
2022-01-10T22:34:00,pkn,9.60
2022-01-10T22:36:00,pkn,10.80
2022-01-10T22:37:00,pkn,2.40
2022-01-10T22:39:00,pkn,1.20
2022-01-10T22:40:00,pkn,1.20
2022-01-10T22:42:00,pkn,2.40
2022-01-10T22:44:00,pkn,2.40
2022-01-10T22:45:00,pkn,2.40
2022-01-10T22:47:00,pkn,4.80
2022-01-10T22:49:00,pkn,3.60
2022-01-10T22:50:00,pkn,4.80
2022-01-10T22:52:00,pkn,9.60
2022-01-10T22:53:00,pkn,6.00
2022-01-10T22:54:00,pkn,4.80
2022-01-10T22:56:00,pkn,10.80
2022-01-10T22:58:00,pkn,4.80
2022-01-10T23:00:00,pkn,2.40
2022-01-10T23:01:00,pkn,1.20
2022-01-10T23:03:00,pkn,2.40
2022-01-10T23:05:00,pkn,1.20
2022-01-10T23:07:00,pkn,1.20
2022-01-10T23:08:00,pkn,1.20
2022-01-10T23:10:00,pkn,2.40
2022-01-10T23:12:00,pkn,1.20
2022-01-10T23:13:00,pkn,1.20
2022-01-10T23:15:00,pkn,10.80
2022-01-10T23:17:00,pkn,9.60
2022-01-10T23:18:00,pkn,4.80
2022-01-10T23:20:00,pkn,10.80
2022-01-10T23:22:00,pkn,4.80
2022-01-10T23:24:00,pkn,2.40
2022-01-10T23:25:00,pkn,1.20
2022-01-10T23:26:00,pkn,1.20
2022-01-10T23:28:00,pkn,2.40
2022-01-10T23:29:00,pkn,1.20
2022-01-10T23:31:00,pkn,2.40
2022-01-10T23:33:00,pkn,1.20
2022-01-10T23:35:00,pkn,2.40
2022-01-10T23:37:00,pkn,2.40
2022-01-10T23:38:00,pkn,1.20
2022-01-10T23:40:00,pkn,2.40
2022-01-10T23:42:00,pkn,7.20
2022-01-10T23:44:00,pkn,10.80
2022-01-10T23:46:00,pkn,10.80
2022-01-10T23:48:00,pkn,7.20
2022-01-10T23:50:00,pkn,1.20
2022-01-10T23:51:00,pkn,1.20
2022-01-10T23:52:00,pkn,2.40
2022-01-10T23:53:00,pkn,1.20
2022-01-10T23:55:00,pkn,2.40
2022-01-10T23:56:00,pkn,1.20
2022-01-10T23:58:00,pkn,2.40
